[[{"header":{"parameterUnit":"m.s-1","parameterCategory":1,"la1":30.2991,"la2":30.254,"lo1":-89.0895,"lo2":-89.0444,"dy":0.0017,"dx":0.0017,"nx":28,"ny":28,"refTime":"2024-06-30T21:00:00:Z","depth":0,"parameterNumber":2,"parameterNumberName":"U-component_of_WINDS"},"data":[0,0,0,0,0,0,0,0,0,0,0,0,0,0,0,0,0,0,0,0,0,0,0,0,0,0,0,0,0,0,0,0,0,0,0,0,0,0,0,0,0,0,0,0,0,0,0,0,0,0,0,0,0,0,0,0,0,0,3.1099,3.1101,0,3.1271,3.1273,3.1275,3.1254,3.1251,3.1248,3.1246,3.1426,3.1433,3.1441,0,0,0,0,0,0,0,0,0,0,0,0,0,3.0759,3.0765,3.1099,3.1101,3.1103,3.1271,3.1273,3.1275,3.1255,3.1251,3.1248,3.1245,3.1424,3.1432,3.1441,0,0,0,0,0,0,0,0,0,0,0,0,0,3.0916,3.0767,3.1099,3.1113,3.1116,3.127,3.1273,3.1276,3.1255,3.1251,3.1247,3.1243,3.1421,3.1432,3.1442,3.1594,0,0,3.1476,3.1481,0,0,0,0,0,0,0,0,3.0907,3.0929,3.1109,3.1112,3.1116,3.1237,3.1219,3.1383,3.1256,3.1203,3.1246,3.1241,3.1367,3.1382,3.1424,3.1603,3.1611,3.1477,3.1484,3.1489,3.1492,0,0,0,0,0,0,0,3.0896,3.0921,3.1167,3.1112,3.1116,3.1113,3.113,3.125,3.1306,3.1207,3.1206,3.1226,3.1368,3.1413,3.1428,3.1613,3.1477,3.1487,3.1494,3.1498,3.1929,3.1933,0,0,0,0,0,0,3.0881,3.0912,3.1162,3.1172,3.0999,3.1122,3.1142,3.1202,3.1305,3.1316,3.123,3.1225,3.1396,3.1415,3.1434,3.162,3.1489,3.1499,3.1506,3.1924,3.193,3.1935,0,0,0,0,0,0,3.0874,3.0904,3.1155,3.1042,3.1074,3.1132,3.12,3.1208,3.1253,3.1322,3.1332,3.1265,3.1393,3.1418,3.1555,3.1626,3.1504,3.1514,3.1918,3.1926,3.1932,3.1993,0,0,0,0,0,0,3.0864,3.0901,3.0958,3.1043,3.108,3.1272,3.1205,3.1214,3.1271,3.1266,3.1358,3.1369,3.1392,3.1538,3.1566,3.1639,3.1523,3.1912,3.1922,3.193,3.1985,3.2001,3.2015,0,0,0,0,0,3.0852,3.0969,3.0961,3.0991,3.1152,3.1276,3.1297,3.132,3.1277,3.1336,3.1381,3.1366,3.1614,3.1553,3.1583,3.1661,3.1908,3.1919,3.1929,3.1978,3.1998,3.2015,0,0,0,0,0,0,3.0891,3.098,3.0973,3.112,3.119,3.1272,3.1346,3.134,3.1425,3.1417,3.1443,3.1464,3.1603,3.1645,3.1576,3.1815,3.1755,3.1773,3.1782,3.1801,3.1816,3.1803,3.1532,0,0,0,0,0,3.0917,3.1008,3.1081,3.1205,3.124,3.1287,3.1342,3.1354,3.1428,3.1458,3.1513,3.1587,3.1682,3.1744,3.1835,3.1991,3.2011,3.2059,3.2074,3.2087,3.2102,3.219,3.2212,3.197,3.197,3.197,0,0,3.0971,3.1031,3.1087,3.1214,3.127,3.1366,3.1313,3.1416,3.1488,3.1474,3.1607,3.165,3.1735,3.1882,3.195,3.1922,3.2173,3.21,3.211,3.2118,3.2203,3.2226,3.2246,3.1978,3.1976,3.1975,0,0,3.1119,3.1173,3.1282,3.1339,3.1424,3.1455,3.1481,3.1564,3.1592,3.1725,3.1717,3.1804,3.1966,3.2027,3.208,3.2253,3.2243,3.2282,3.2362,3.2447,3.2466,3.2483,3.2546,3.2569,3.2296,3.2297,3.2297,0,3.1176,3.1319,3.1339,3.1444,3.1501,3.1492,3.1604,3.1659,3.177,3.1811,3.1777,3.1982,3.2038,3.2201,3.2243,3.2285,3.2318,3.2272,3.2461,3.2479,3.2495,3.2556,3.2579,3.2301,3.23,3.23,3.2299,0,3.1386,3.1485,3.1563,3.1669,3.1735,3.1843,3.1882,3.1946,3.1953,3.1988,3.2125,3.2192,3.2297,3.2337,3.2344,3.2501,3.2482,3.2455,3.2396,3.2522,3.2579,3.2603,3.2307,3.2305,3.2304,3.2303,0,0,3.1563,3.168,3.1708,3.1757,3.1851,3.1929,3.2037,3.2139,3.2194,3.2272,3.2365,3.2503,3.2479,3.2538,3.2553,3.2628,3.2763,3.2592,3.2594,3.2623,3.2942,3.2962,3.2989,3.2756,3.2761,3.2765,3.2936,0,3.1721,3.1911,3.1934,3.2104,3.2197,3.219,3.2285,3.2354,3.239,3.2476,3.2516,3.2614,3.2574,3.261,3.2684,3.273,3.2827,3.2718,3.2845,3.285,3.2825,3.3019,3.304,3.3198,3.2958,3.2962,3.2965,0,3.1931,3.2013,3.2192,3.2274,3.2314,3.2398,3.2494,3.2576,3.2655,3.2676,3.2743,3.2748,3.2863,3.2799,3.2958,3.2883,3.2937,3.2968,3.2975,3.2988,3.2915,3.3039,3.3249,3.3273,3.3,3.2997,3.2995,0,3.2044,3.2199,3.2327,3.2369,3.2467,3.2527,3.2572,3.2646,3.2706,3.2791,3.2831,3.2928,3.2982,3.3058,3.309,3.304,3.3249,3.3187,3.3271,3.3271,3.3316,3.3313,3.3539,3.3349,3.3348,3.3348,3.3347,0,3.2219,3.2329,3.2379,3.2458,3.2582,3.2608,3.273,3.2772,3.2839,3.2928,3.2928,3.3012,3.3049,3.3139,3.3165,3.3294,3.3318,3.334,3.3346,3.3341,3.3338,3.3377,3.3367,3.3354,3.3353,3.3352,3.3351,0,3.2366,3.2404,3.2543,3.2625,3.2648,3.2736,3.2808,3.2885,3.292,3.3032,3.306,3.3116,3.3222,3.3262,3.3391,3.3409,3.3559,3.3555,3.3532,3.3533,3.3616,3.3609,3.3876,3.3913,3.3697,3.3699,3.3701,0,3.2476,3.256,3.2651,3.271,3.2756,3.285,3.2911,3.2941,3.3005,3.3102,3.3168,3.3273,3.3359,3.3529,3.3583,3.3682,3.3682,3.3769,3.3697,3.369,3.3685,3.368,3.369,3.3783,3.3785,3.3787,3.3788,0,3.2667,3.2682,3.2769,3.2864,3.2937,3.3013,3.3088,3.3136,3.3177,3.325,3.3357,3.3424,3.3556,3.3661,3.3763,3.3811,3.3808,3.381,3.3835,3.3831,3.3815,3.3826,3.3569,3.3804,3.3802,3.3801,3.38,3.38,3.28,3.2875,3.2951,3.3049,3.3108,3.3178,3.3255,3.33,3.3389,3.3498,3.351,3.3627,3.3706,3.3843,3.3895,3.3988,3.3965,3.4001,3.401,3.4019,3.4026,3.3799,3.4007,3.4006,3.4006,3.4005,3.4005,0,3.2992,3.3041,3.3131,3.3234,3.3312,3.33,3.3382,3.3449,3.355,3.3623,3.3707,3.3832,3.3935,3.3997,3.41,3.4163,3.4164,3.4189,3.4185,3.4197,3.4039,3.4008,3.4186,3.4186,3.4186,3.4186,3.4186,3.4186,3.3101,3.3229,3.3253,3.341,3.3459,3.3571,3.362,3.3685,3.3743,3.3882,3.3967,3.4006,3.4075,3.4184,3.4278,3.4294,3.4333,3.436,3.4375,3.4226,3.4208,3.419,3.4161,3.4368,3.4368,3.4525,3.4526,3.4527]},{"header":{"parameterUnit":"m.s-1","parameterCategory":1,"la1":30.2991,"la2":30.254,"lo1":-89.0895,"lo2":-89.0444,"dy":0.0017,"dx":0.0017,"nx":28,"ny":28,"refTime":"2024-06-30T21:00:00:Z","depth":0,"parameterNumber":3,"parameterNumberName":"V-component_of_WINDS"},"data":[0,0,0,0,0,0,0,0,0,0,0,0,0,0,0,0,0,0,0,0,0,0,0,0,0,0,0,0,0,0,0,0,0,0,0,0,0,0,0,0,0,0,0,0,0,0,0,0,0,0,0,0,0,0,0,0,0,0,-0.7446,-0.7447,0,-0.7521,-0.7522,-0.7522,-0.7555,-0.7554,-0.7554,-0.7554,-0.7631,-0.7633,-0.7635,0,0,0,0,0,0,0,0,0,0,0,0,0,-0.7332,-0.7334,-0.7446,-0.7447,-0.7448,-0.7521,-0.7522,-0.7523,-0.7555,-0.7554,-0.7554,-0.7554,-0.763,-0.7633,-0.7636,0,0,0,0,0,0,0,0,0,0,0,0,0,-0.7391,-0.7334,-0.7446,-0.7473,-0.7476,-0.752,-0.7522,-0.7523,-0.7555,-0.7554,-0.7554,-0.7554,-0.763,-0.7633,-0.7636,-0.766,0,0,-0.7646,-0.7647,0,0,0,0,0,0,0,0,-0.7388,-0.7396,-0.7468,-0.7471,-0.7474,-0.7528,-0.751,-0.7569,-0.7555,-0.7525,-0.7554,-0.7554,-0.7597,-0.7603,-0.7617,-0.7663,-0.7667,-0.7646,-0.7648,-0.7649,-0.765,0,0,0,0,0,0,0,-0.7384,-0.7392,-0.7476,-0.7469,-0.7473,-0.7481,-0.7489,-0.7521,-0.7561,-0.7527,-0.753,-0.7538,-0.7599,-0.7614,-0.7619,-0.7668,-0.7646,-0.7649,-0.7651,-0.7652,-0.7737,-0.7737,0,0,0,0,0,0,-0.7375,-0.7389,-0.7473,-0.7478,-0.743,-0.7483,-0.7492,-0.7511,-0.7561,-0.7568,-0.7538,-0.7539,-0.7609,-0.7616,-0.7622,-0.7653,-0.7649,-0.7652,-0.7654,-0.7737,-0.7737,-0.7738,0,0,0,0,0,0,-0.7373,-0.7382,-0.747,-0.7434,-0.7446,-0.7485,-0.7506,-0.7513,-0.7528,-0.7569,-0.7576,-0.7546,-0.7609,-0.7618,-0.765,-0.7657,-0.7654,-0.7657,-0.7736,-0.7737,-0.7737,-0.7716,0,0,0,0,0,0,-0.7369,-0.7381,-0.7391,-0.7434,-0.7448,-0.7497,-0.7506,-0.7514,-0.7533,-0.7536,-0.7579,-0.7586,-0.7609,-0.7645,-0.7653,-0.7661,-0.7659,-0.7736,-0.7737,-0.7737,-0.7716,-0.7716,-0.7715,0,0,0,0,0,-0.7365,-0.7382,-0.7391,-0.7401,-0.746,-0.7497,-0.7505,-0.7531,-0.7534,-0.7544,-0.757,-0.7584,-0.7655,-0.7648,-0.7658,-0.7666,-0.7736,-0.7737,-0.7737,-0.7716,-0.7716,-0.7715,0,0,0,0,0,0,-0.7338,-0.7388,-0.7399,-0.743,-0.7459,-0.7502,-0.7515,-0.753,-0.7559,-0.756,-0.7592,-0.7601,-0.7631,-0.7652,-0.7644,-0.7692,-0.7696,-0.7699,-0.7677,-0.7677,-0.7676,-0.7671,-0.7662,0,0,0,0,0,-0.7336,-0.7361,-0.7403,-0.7427,-0.7441,-0.7475,-0.7492,-0.7511,-0.7542,-0.7555,-0.7583,-0.7614,-0.7643,-0.7661,-0.769,-0.7719,-0.7729,-0.773,-0.773,-0.7729,-0.7731,-0.7748,-0.7749,-0.774,-0.774,-0.774,0,0,-0.7331,-0.7361,-0.7376,-0.7422,-0.7447,-0.7473,-0.7486,-0.7512,-0.7532,-0.7559,-0.7591,-0.7613,-0.7649,-0.768,-0.7696,-0.7699,-0.7736,-0.773,-0.7729,-0.7731,-0.7749,-0.775,-0.7751,-0.774,-0.774,-0.774,0,0,-0.7336,-0.7361,-0.7384,-0.7408,-0.7445,-0.7468,-0.7474,-0.7515,-0.7531,-0.7564,-0.7584,-0.7608,-0.7657,-0.7682,-0.7701,-0.7715,-0.773,-0.7724,-0.7721,-0.7738,-0.7738,-0.7739,-0.7744,-0.7746,-0.7726,-0.7726,-0.7726,0,-0.7325,-0.7365,-0.7393,-0.7419,-0.7439,-0.7464,-0.7487,-0.751,-0.7554,-0.7568,-0.7571,-0.7633,-0.7659,-0.7696,-0.77,-0.7714,-0.7722,-0.7719,-0.7736,-0.7737,-0.7738,-0.7743,-0.7745,-0.7725,-0.7725,-0.7725,-0.7725,0,-0.7351,-0.7378,-0.7392,-0.7434,-0.7455,-0.748,-0.7512,-0.753,-0.7546,-0.7569,-0.7602,-0.7634,-0.767,-0.7681,-0.7697,-0.772,-0.7721,-0.773,-0.7734,-0.7738,-0.7743,-0.7745,-0.7723,-0.7724,-0.7724,-0.7724,0,0,-0.7341,-0.7398,-0.7403,-0.7422,-0.7465,-0.7487,-0.7512,-0.7547,-0.7563,-0.7593,-0.7615,-0.7656,-0.7664,-0.7686,-0.7705,-0.7719,-0.7729,-0.7726,-0.7728,-0.7726,-0.7757,-0.775,-0.7752,-0.7739,-0.7739,-0.774,-0.7754,0,-0.7351,-0.7398,-0.7424,-0.746,-0.7485,-0.751,-0.7532,-0.7561,-0.7583,-0.7608,-0.7632,-0.7661,-0.7669,-0.7682,-0.7698,-0.7724,-0.7736,-0.7724,-0.776,-0.7761,-0.775,-0.7755,-0.7748,-0.7761,-0.7756,-0.7757,-0.7757,0,-0.737,-0.7399,-0.7438,-0.7478,-0.7489,-0.7509,-0.7543,-0.7567,-0.76,-0.7615,-0.7639,-0.7658,-0.7686,-0.7689,-0.7728,-0.772,-0.7736,-0.7751,-0.7753,-0.7757,-0.7759,-0.776,-0.7765,-0.7767,-0.7761,-0.7761,-0.776,0,-0.7359,-0.7408,-0.7437,-0.7453,-0.7501,-0.7514,-0.7534,-0.7567,-0.7587,-0.7617,-0.763,-0.7663,-0.7681,-0.7706,-0.7734,-0.7733,-0.777,-0.7775,-0.7784,-0.7783,-0.779,-0.7789,-0.7798,-0.7801,-0.7801,-0.7801,-0.7801,0,-0.7368,-0.739,-0.7433,-0.7451,-0.7477,-0.7507,-0.7531,-0.7554,-0.7583,-0.7606,-0.7629,-0.7651,-0.7686,-0.7711,-0.7733,-0.7763,-0.7771,-0.7784,-0.7789,-0.7782,-0.778,-0.7793,-0.7793,-0.7801,-0.7801,-0.7801,-0.7801,0,-0.736,-0.7389,-0.7423,-0.7465,-0.7476,-0.7493,-0.7529,-0.7548,-0.7571,-0.76,-0.7608,-0.7645,-0.7676,-0.7706,-0.7748,-0.7763,-0.7792,-0.78,-0.7781,-0.7784,-0.7791,-0.779,-0.7808,-0.7812,-0.7812,-0.7812,-0.7812,0,-0.7364,-0.7382,-0.7426,-0.7443,-0.7462,-0.7489,-0.7509,-0.7539,-0.7559,-0.7599,-0.7612,-0.7645,-0.7673,-0.7722,-0.7753,-0.7785,-0.7794,-0.7798,-0.7799,-0.779,-0.7794,-0.7792,-0.7794,-0.7797,-0.7797,-0.7797,-0.7797,0,-0.7368,-0.7381,-0.7409,-0.7442,-0.7465,-0.7492,-0.752,-0.7532,-0.7568,-0.7589,-0.7621,-0.7643,-0.7686,-0.7719,-0.7755,-0.7776,-0.7792,-0.7796,-0.78,-0.7792,-0.7781,-0.7787,-0.7779,-0.7796,-0.7796,-0.7796,-0.7796,-0.7796,-0.7366,-0.7383,-0.7417,-0.7447,-0.7471,-0.7496,-0.7516,-0.7541,-0.7569,-0.7606,-0.7622,-0.7655,-0.7688,-0.7738,-0.7759,-0.7785,-0.7789,-0.7794,-0.7796,-0.7797,-0.7795,-0.7776,-0.7792,-0.7792,-0.7792,-0.7792,-0.7792,0,-0.7371,-0.7394,-0.7421,-0.746,-0.7483,-0.7496,-0.7528,-0.7547,-0.7575,-0.7605,-0.7632,-0.7669,-0.7701,-0.7734,-0.7767,-0.7782,-0.779,-0.779,-0.7789,-0.7794,-0.779,-0.7783,-0.7783,-0.7783,-0.7783,-0.7783,-0.7783,-0.7783,-0.7377,-0.7406,-0.7424,-0.7465,-0.7488,-0.752,-0.7537,-0.7561,-0.7585,-0.7625,-0.7651,-0.7672,-0.7704,-0.774,-0.777,-0.7779,-0.779,-0.7787,-0.7798,-0.7794,-0.7794,-0.7795,-0.7789,-0.7789,-0.7789,-0.78,-0.7801,-0.7801]}]]